Location: Berg
(47.2344°N, 9.5296°E)
Time: 16:32:51
(UTC+00:00)

NOSS 3-1 (A) - Pass Details

Date: 24 January 2021
Orbit: 735 x 1477 km, 63.4° (Epoch: 26 February)

Event Time Altitude Azimuth Distance (km) Brightness Sun altitude
Rises 18:47:30 0° 319° (NW) 3,939 7.2 -26.2°
Reaches altitude 10° 18:50:01 10° 317° (NW) 3,076 6.6 -26.6°
Maximum altitude 18:57:31 73° 235° (SW) 1,364 4.2 -27.9°
Enters shadow 19:02:48 26° 156° (SSE) 2,440 5.3 -28.8°
